EW0791 Weather Reports


Display with metric or nautical units.
time (UTC)temp
F
wind
direction
speed
MPH
gust
MPH
rain 1hr
in
rain 24hr
in
rain mn
in
humidity
%
barometer
mb
20230130140325 35 41 0.0 1.0 0.00 0.00 0.00 88 1022.7
20230130134826 34 41 0.0 1.0 0.00 0.00 0.00 89 1022.6
20230130133339 34 30 1.0 2.0 0.00 0.00 0.00 91 1022.6
20230130131824 33 36 0.0 1.0 0.00 0.00 0.00 92 1022.4
20230130130334 32 35 0.0 1.0 0.00 0.00 0.00 92 1022.3
20230130124823 31 359 1.0 4.0 0.00 0.00 0.00 92 1022.4
20230130123338 31 46 0.0 3.0 0.00 0.00 0.00 92 1021.8
20230130121821 31 207 0.0 1.0 0.00 0.00 0.00 90 1021.8
20230130120355 32 255 0.0 1.0 0.00 0.00 0.00 91 1021.5
20230130114845 33 255 0.0 1.0 0.00 0.00 0.00 91 1021.2
20230130113337 32 255 0.0 0.0 0.00 0.00 0.00 89 1021.2
20230130111820 33 255 0.0 0.0 0.00 0.00 0.00 88 1021.3
20230130110333 34 255 0.0 3.0 0.00 0.00 0.00 89 1020.8
20230130104820 34 212 0.0 1.0 0.00 0.00 0.00 89 1020.5
20230130103330 33 203 1.0 1.0 0.00 0.00 0.00 88 1020.1
20230130101841 34 99 0.0 1.0 0.00 0.00 0.00 88 1020.2
20230130100332 34 99 0.0 1.0 0.00 0.00 0.00 89 1020.2
20230130094817 33 99 0.0 2.0 0.00 0.00 0.00 88 1019.9
20230130093348 34 156 0.0 1.0 0.00 0.00 0.00 87 1020.0
20230130091812 34 166 1.0 1.0 0.00 0.00 0.00 88 1019.8
20230130090324 34 155 1.0 1.0 0.00 0.00 0.00 87 1019.7
20230130084848 33 155 0.0 1.0 0.00 0.00 0.00 89 1019.5
20230130083315 33 155 0.0 0.0 0.00 0.00 0.00 86 1019.5
20230130081829 34 155 0.0 1.0 0.00 0.00 0.00 87 1019.4
20230130080338 35 217 0.0 1.0 0.00 0.00 0.00 84 1019.5
20230130074820 35 212 0.0 2.0 0.00 0.00 0.00 86 1019.3
20230130073331 34 205 0.0 0.0 0.00 0.00 0.00 85 1019.3
20230130071818 35 217 1.0 1.0 0.00 0.00 0.00 84 1019.3
20230130070327 35 217 0.0 1.0 0.00 0.00 0.00 84 1019.0
20230130064812 35 222 0.0 1.0 0.00 0.00 0.00 84 1018.9
20230130063320 37 223 0.0 1.0 0.00 0.00 0.00 81 1018.2
20230130061834 38 223 0.0 1.0 0.00 0.00 0.00 80 1018.3
20230130060317 37 243 0.0 1.0 0.00 0.00 0.00 81 1018.7
20230130054826 37 212 0.0 1.0 0.00 0.00 0.00 80 1018.5
20230130053340 38 210 1.0 2.0 0.00 0.00 0.00 80 1018.2
20230130051830 38 191 0.0 2.0 0.00 0.00 0.00 78 1018.2
20230130050341 40 197 0.0 1.0 0.00 0.00 0.00 75 1018.4
20230130044817 40 205 0.0 1.0 0.00 0.00 0.00 74 1018.9
20230130043325 41 217 0.0 2.0 0.00 0.00 0.00 74 1018.9
20230130041835 41 168 0.0 1.0 0.00 0.00 0.00 73 1018.5
20230130040320 42 248 0.0 1.0 0.00 0.00 0.00 71 1018.2
20230130034819 43 205 1.0 3.0 0.00 0.00 0.00 69 1018.4
20230130033332 43 212 1.0 3.0 0.00 0.00 0.00 69 1018.6
20230130031820 43 226 1.0 4.0 0.00 0.00 0.00 68 1018.4
20230130030330 43 231 1.0 3.0 0.00 0.00 0.00 67 1018.6
20230130024819 44 186 1.0 3.0 0.00 0.00 0.00 66 1018.4
20230130023329 44 218 1.0 5.0 0.00 0.00 0.00 65 1018.3
20230130021840 45 228 1.0 4.0 0.00 0.00 0.00 64 1018.2
20230130020322 45 230 2.0 5.0 0.00 0.00 0.00 63 1017.9
20230130014837 46 198 3.0 6.0 0.00 0.00 0.00 61 1017.9
20230130013323 46 240 2.0 5.0 0.00 0.00 0.00 60 1017.9
20230130011855 47 239 2.0 5.0 0.00 0.00 0.00 59 1018.0
20230130010317 47 200 3.0 9.0 0.00 0.00 0.00 57 1018.0
20230130004829 48 263 3.0 6.0 0.00 0.00 0.00 57 1018.2
20230130003340 48 236 2.0 6.0 0.00 0.00 0.00 57 1018.1
20230130001824 48 216 2.0 6.0 0.00 0.00 0.00 57 1018.2
20230130000334 49 235 2.0 8.0 0.00 0.00 0.00 56 1018.3
20230129234846 49 272 3.0 11.0 0.00 0.00 0.00 55 1018.5
20230129233336 48 143 3.0 8.0 0.00 0.00 0.00 55 1018.4
20230129231849 49 235 2.0 6.0 0.00 0.00 0.00 54 1018.5
20230129230340 49 274 3.0 22.0 0.00 0.00 0.00 53 1018.4
20230129224825 49 259 8.0 17.0 0.00 0.00 0.00 53 1018.3
20230129223355 49 193 4.0 8.0 0.00 0.00 0.00 58 1018.4
20230129221820 49 216 3.0 10.0 0.00 0.00 0.00 59 1018.3
20230129220325 49 236 3.0 7.0 0.00 0.00 0.00 60 1018.5
20230129214839 49 216 2.0 6.0 0.00 0.00 0.00 61 1018.8
20230129213325 49 246 2.0 5.0 0.00 0.00 0.00 61 1018.4
20230129211853 49 137 1.0 4.0 0.00 0.00 0.00 62 1018.4
20230129210317 49 195 1.0 4.0 0.00 0.00 0.00 63 1018.3
20230129204825 49 94 1.0 4.0 0.00 0.00 0.00 62 1018.6
20230129203336 49 208 4.0 9.0 0.00 0.00 0.00 62 1018.9
20230129201821 48 212 2.0 4.0 0.00 0.00 0.00 66 1019.1
20230129200326 47 179 1.0 2.0 0.00 0.00 0.00 67 1019.3
20230129194839 47 153 0.0 1.0 0.00 0.00 0.00 67 1019.6
20230129193323 46 86 0.0 2.0 0.00 0.00 0.00 67 1019.6
20230129191831 47 122 0.0 1.0 0.00 0.00 0.00 67 1020.1
20230129190317 46 122 0.0 1.0 0.00 0.00 0.00 67 1020.3
20230129184827 46 156 0.0 0.0 0.00 0.00 0.00 67 1020.6
20230129183313 46 156 0.0 1.0 0.00 0.00 0.00 67 1020.8
20230129181827 46 212 0.0 2.0 0.00 0.00 0.00 67 1021.2
20230129180339 46 134 0.0 3.0 0.00 0.00 0.00 67 1021.5
20230129174825 46 166 0.0 5.0 0.00 0.00 0.00 66 1021.9
20230129173357 46 136 1.0 5.0 0.00 0.00 0.00 65 1022.1
20230129171820 46 195 1.0 2.0 0.00 0.00 0.00 65 1022.4
20230129170350 45 196 1.0 5.0 0.00 0.00 0.00 67 1022.9
20230129164839 45 250 3.0 8.0 0.00 0.00 0.00 66 1023.0
20230129163325 45 240 4.0 7.0 0.00 0.00 0.00 65 1023.6
20230129161836 45 178 3.0 5.0 0.00 0.00 0.00 64 1023.9
20230129160321 44 191 1.0 3.0 0.00 0.00 0.00 65 1024.3
20230129154823 42 192 0.0 3.0 0.00 0.00 0.00 67 1024.7
20230129153334 40 110 1.0 5.0 0.00 0.00 0.00 70 1025.0
20230129151820 39 154 1.0 3.0 0.00 0.00 0.00 73 1025.0
20230129150333 37 229 0.0 1.0 0.00 0.00 0.00 76 1025.7
20230129144817 35 219 0.0 1.0 0.00 0.00 0.00 79 1025.8
20230129143325 34 154 0.0 1.0 0.00 0.00 0.00 80 1026.1
20230129141837 33 228 0.0 1.0 0.00 0.00 0.00 82 1026.5